Date,TemperatureHighF,TemperatureAvgF,TemperatureLowF,DewpointHighF,DewpointAvgF,DewpointLowF,HumidityHigh,HumidityAvg,HumidityLow,PressureMaxIn,PressureMinIn,WindSpeedMaxMPH,WindSpeedAvgMPH,GustSpeedMaxMPH,PrecipitationSumIn
2013-5-1,66.0,54.0,42.3,17.1,11.2,4.7,21,18,15,30.36,30.09,25,11,25,0.00
2013-5-2,65.1,53.3,44.6,17.0,10.9,6.0,20,18,15,30.39,30.33,27,10,27,0.00
2013-5-3,72.7,56.7,46.8,20.8,12.5,6.7,19,17,14,30.36,30.15,19,7,19,0.00
2013-5-4,67.6,54.0,44.6,18.1,11.0,6.0,20,18,15,30.18,29.97,23,6,23,0.00
2013-5-5,47.7,40.7,36.3,34.0,11.2,1.0,78,33,19,30.09,29.97,32,15,32,0.00
2013-5-6,45.7,41.0,35.4,38.4,31.8,9.4,83,71,33,30.15,30.06,33,8,33,0.00
2013-5-7,41.9,39.5,36.7,35.0,30.8,21.4,85,71,52,30.21,30.12,29,8,29,0.00
2013-5-8,48.7,43.3,38.8,43.6,35.7,17.9,89,76,35,30.30,30.21,28,11,28,0.00
2013-5-9,54.0,46.0,40.6,44.0,28.6,3.6,86,58,18,30.33,30.24,26,11,26,0.00
2013-5-10,65.8,53.5,44.2,44.9,21.3,5.4,82,35,15,30.42,30.33,26,12,26,0.00
2013-5-11,74.5,60.1,49.6,24.7,14.4,8.9,19,17,13,30.45,30.36,24,6,24,0.00
2013-5-12,75.9,60.9,53.2,25.8,14.9,10.7,18,16,13,30.45,30.33,17,8,17,0.00
2013-5-13,75.7,63.9,53.1,25.8,16.9,10.7,18,16,13,30.42,30.30,15,5,15,0.00
2013-5-14,68.0,57.2,45.9,18.7,12.8,6.4,20,17,15,30.33,30.18,28,16,28,0.00
2013-5-15,59.5,51.5,44.6,22.0,11.3,6.0,38,20,17,30.27,30.21,29,20,29,0.00
2013-5-16,53.8,44.5,36.5,19.5,6.3,-1.8,46,21,18,30.24,30.12,27,18,27,0.00
2013-5-17,51.4,43.3,37.0,42.0,22.2,1.0,82,50,19,30.24,30.12,32,17,32,0.00
2013-5-18,54.9,42.4,34.3,12.2,4.1,-2.6,31,20,18,30.27,30.18,40,24,40,0.00
2013-5-19,57.9,46.9,37.4,13.4,7.0,-1.1,21,19,17,30.27,30.21,35,18,35,0.00
2013-5-20,71.2,56.1,42.6,20.0,12.2,4.5,21,17,14,30.30,30.24,27,3,27,0.00
2013-5-21,67.1,53.6,40.6,17.9,10.9,3.8,21,18,15,30.27,30.12,25,12,25,0.00
2013-5-22,49.1,42.1,30.4,8.6,3.9,-5.9,22,20,19,30.15,30.03,26,18,26,0.00
2013-5-23,52.0,39.6,30.2,10.6,1.6,-6.0,22,20,18,30.18,30.06,27,17,27,0.00
2013-5-24,65.7,49.4,37.0,17.1,8.5,1.0,22,19,15,30.21,30.12,20,8,20,0.00
2013-5-25,60.4,45.1,35.8,15.4,5.4,-2.4,22,19,17,30.24,30.15,23,11,23,0.00
2013-5-26,49.8,41.4,35.4,26.4,4.9,-2.3,53,22,19,30.27,30.18,30,20,30,0.00
2013-5-27,52.9,44.7,36.7,39.5,13.0,-1.5,74,31,18,30.27,30.15,31,22,31,0.00
2013-5-28,52.7,48.4,36.7,43.8,37.9,1.4,81,68,22,30.18,30.06,46,30,46,0.00
2013-5-29,51.3,45.6,36.7,41.3,13.5,1.2,72,29,19,30.21,30.09,33,24,33,0.00
2013-5-30,62.6,52.1,39.4,31.0,10.7,2.7,49,19,16,30.24,30.18,31,21,31,0.00
2013-5-31,76.5,61.4,44.6,25.8,15.2,6.0,20,17,13,30.30,30.24,29,9,29,0.00